North Adams, MA

12:54 PM EST on January 20, 2018 (GMT -0500)
Harriman And West

Weather History for KAQW - March, 2012

Change the Weather History Date:

Saturday, March 10, 2012

  Actual Average Record
Temperature  
Mean Temperature 30 °F -  
Max Temperature 36 °F 36 °F 64 °F (2016)
Min Temperature 24 °F 19 °F 7 °F (2005)
Degree Days  
Heating Degree Days 35    
Moisture  
Dew Point 14 °F    
Average Humidity 59    
Maximum Humidity 75    
Minimum Humidity 39    
Precipitation  
Precipitation 0.00 in - - ()
Sea Level Pressure  
Sea Level Pressure 30.39 in    
Wind  
Wind Speed 11 mph (West)    
Max Wind Speed 18 mph    
Max Gust Speed 28 mph    
Visibility 9 miles    
Events Snow    
Averages and records for this station are not official NWS values.
T = Trace of Precipitation, MM = Missing Value Source: NWS Daily Summary

Daily Weather History Graph

Daily Weather History Graph

Search for Another Location

Airport or City:

Trip Planner

Search our weather history database for the weather conditions in past years. The results will help you decide how hot, cold, wet, or windy it might be!

Date:

Astronomy

Mar. 10, 2012 Rise Set
Actual Time 6:12 AM EST 5:53 PM EST
Civil Twilight 5:44 AM EST 6:21 PM EST
Nautical Twilight 5:11 AM EST 6:54 PM EST
Astronomical Twilight 4:38 AM EST 7:27 PM EST
Moon 9:08 PM EST (3/10) 7:01 AM EST (3/10)
Length of Visible Light 12h 37m
Length of Day
11h 41m
Waning Gibbous, 93% of the Moon is Illuminated
Mar 10
Waning Gibbous
Mar 14
Last Quarter
Mar 22
New
Mar 30
First Quarter
Apr 6
Full

Hourly Weather History & Observations

Time (EST) Temp. Windchill Dew Point Humidity Pressure Visibility Wind Dir Wind Speed Gust Speed Precip Events Conditions
12:52 AM 27.0 °F 15.6 °F 12.0 °F 53% 30.22 in 10.0 mi West 13.8 mph 25.3 mph N/A   Partly Cloudy
1:52 AM 26.1 °F 14.5 °F 12.0 °F 55% 30.23 in 10.0 mi West 13.8 mph 26.5 mph N/A   Mostly Cloudy
2:52 AM 26.1 °F 14.5 °F 14.0 °F 60% 30.24 in 8.0 mi West 13.8 mph 25.3 mph 0.00 in Snow Light Snow
3:18 AM 26.6 °F 14.7 °F 14.0 °F 59% 30.22 in 10.0 mi West 15.0 mph 24.2 mph 0.00 in   Overcast
3:27 AM 24.8 °F 13.4 °F 14.0 °F 64% 30.23 in 10.0 mi West 12.7 mph 21.9 mph 0.00 in   Overcast
3:52 AM 25.0 °F 13.1 °F 16.0 °F 69% 30.27 in 3.0 mi West 13.8 mph 19.6 mph 0.00 in Snow Light Snow
3:57 AM 24.8 °F 12.9 °F 15.8 °F 69% 30.24 in 2.5 mi West 13.8 mph 20.7 mph 0.00 in Snow Light Snow
4:06 AM 24.8 °F 11.1 °F 15.8 °F 69% 30.25 in 4.0 mi WSW 18.4 mph 27.6 mph 0.00 in Snow Light Snow
4:52 AM 25.0 °F 13.6 °F 15.1 °F 66% 30.31 in 8.0 mi West 12.7 mph 17.3 mph 0.00 in Snow Light Snow
5:07 AM 24.8 °F 14.6 °F 15.8 °F 69% 30.29 in 6.0 mi West 10.4 mph 21.9 mph 0.00 in Snow Light Snow
5:52 AM 24.1 °F 15.2 °F 14.0 °F 65% 30.35 in 10.0 mi West 8.1 mph - 0.00 in   Overcast
6:24 AM 24.8 °F 14.6 °F 12.2 °F 59% 30.34 in 10.0 mi WSW 10.4 mph - N/A   Overcast
6:52 AM 24.1 °F 13.7 °F 12.9 °F 62% 30.39 in 10.0 mi West 10.4 mph - N/A   Overcast
7:52 AM 24.1 °F 13.7 °F 12.9 °F 62% 30.41 in 10.0 mi West 10.4 mph - N/A   Overcast
8:52 AM 26.1 °F 16.2 °F 12.9 °F 58% 30.46 in 10.0 mi West 10.4 mph - N/A   Overcast
9:52 AM 28.9 °F 22.8 °F 12.9 °F 51% 30.48 in 10.0 mi Variable 5.8 mph - N/A   Overcast
10:19 AM 28.4 °F 20.4 °F 14.0 °F 55% 30.45 in 10.0 mi West 8.1 mph - N/A   Overcast
10:26 AM 28.4 °F 21.2 °F 12.2 °F 51% 30.45 in 10.0 mi Variable 6.9 mph - N/A   Overcast
10:52 AM 28.9 °F 23.9 °F 14.0 °F 54% 30.49 in 10.0 mi Variable 4.6 mph - N/A   Overcast
11:52 AM 30.9 °F 25.2 °F 14.0 °F 50% 30.50 in 10.0 mi Variable 5.8 mph - N/A   Mostly Cloudy
12:52 PM 32.0 °F 24.8 °F 12.9 °F 45% 30.50 in 10.0 mi NW 8.1 mph - N/A   Partly Cloudy
1:52 PM 35.1 °F 28.6 °F 14.0 °F 42% 30.48 in 10.0 mi West 8.1 mph - N/A   Partly Cloudy
2:52 PM 35.1 °F 31.0 °F 12.0 °F 39% 30.48 in 10.0 mi NNW 4.6 mph - N/A   Clear
3:52 PM 36.0 °F 33.3 °F 12.9 °F 39% 30.46 in 10.0 mi NW 3.5 mph - N/A   Clear
5:52 PM 30.0 °F - 18.0 °F 61% 30.48 in 10.0 mi Calm Calm - N/A   Clear
7:52 PM 25.0 °F - 18.0 °F 75% 30.50 in 10.0 mi Calm Calm - N/A   Clear
8:52 PM 25.0 °F - 18.0 °F 75% 30.50 in 10.0 mi Calm Calm - N/A   Scattered Clouds
9:52 PM 26.1 °F - 18.0 °F 71% 30.50 in 10.0 mi Calm Calm - N/A   Overcast
10:52 PM 27.0 °F 23.0 °F 16.0 °F 63% 30.48 in 10.0 mi Variable 3.5 mph - N/A   Clear
11:52 PM 26.1 °F 19.4 °F 16.0 °F 66% 30.47 in 10.0 mi SE 5.8 mph - N/A   Clear